| time (UTC) | temp C | wind direction | speed KPH | gust KPH | rain 1hr cm | rain 24hr cm | rain mn cm | humidity % | barometer mb |
| 20260504234539 | 26 | 360 | 1.6 | 3.2 | 0.00 | 0.00 | 0.00 | 26 | 1001.1 |
| 20260504233046 | 26 | 37 | 4.8 | 8.0 | 0.00 | 0.00 | 0.00 | 24 | 1001.1 |
| 20260504231542 | 26 | 300 | 1.6 | 12.9 | 0.00 | 0.00 | 0.00 | 22 | 1001.3 |
| 20260504230046 | 27 | 328 | 1.6 | 22.5 | 0.00 | 0.00 | 0.00 | 21 | 1001.9 |
| 20260504224546 | 27 | 287 | 6.4 | 22.5 | 0.00 | 0.00 | 0.00 | 22 | 1001.1 |
| 20260504223040 | 27 | 0 | 0.0 | 6.4 | 0.00 | 0.00 | 0.00 | 28 | 1001.5 |
| 20260504221545 | 27 | 0 | 0.0 | 1.6 | 0.00 | 0.00 | 0.00 | 35 | 1001.5 |
| 20260504220046 | 27 | 0 | 0.0 | 3.2 | 0.00 | 0.00 | 0.00 | 29 | 1001.6 |
| 20260504214551 | 27 | 0 | 0.0 | 1.6 | 0.00 | 0.00 | 0.00 | 30 | 1001.7 |
| 20260504213041 | 28 | 0 | 0.0 | 4.8 | 0.00 | 0.00 | 0.00 | 26 | 1001.6 |
| 20260504211541 | 28 | 97 | 3.2 | 9.7 | 0.00 | 0.00 | 0.00 | 25 | 1001.6 |
| 20260504210058 | 29 | 62 | 3.2 | 6.4 | 0.00 | 0.00 | 0.00 | 24 | 1001.9 |
| 20260504204557 | 29 | 122 | 4.8 | 8.0 | 0.00 | 0.00 | 0.00 | 24 | 1002.1 |
| 20260504203056 | 29 | 88 | 1.6 | 6.4 | 0.00 | 0.00 | 0.00 | 26 | 1002.3 |
| 20260504201542 | 27 | 94 | 3.2 | 9.7 | 0.00 | 0.00 | 0.00 | 25 | 1002.6 |
| 20260504200041 | 28 | 108 | 4.8 | 9.7 | 0.00 | 0.00 | 0.00 | 26 | 1002.9 |
| 20260504194547 | 28 | 66 | 4.8 | 9.7 | 0.00 | 0.00 | 0.00 | 27 | 1003.1 |
| 20260504193044 | 28 | 135 | 3.2 | 9.7 | 0.00 | 0.00 | 0.00 | 28 | 1003.3 |
| 20260504191542 | 28 | 76 | 3.2 | 8.0 | 0.00 | 0.00 | 0.00 | 30 | 1003.5 |
| 20260504190042 | 27 | 39 | 3.2 | 8.0 | 0.00 | 0.00 | 0.00 | 30 | 1003.8 |
| 20260504184541 | 27 | 120 | 4.8 | 9.7 | 0.00 | 0.00 | 0.00 | 28 | 1004.0 |
| 20260504183041 | 27 | 347 | 8.0 | 11.3 | 0.00 | 0.00 | 0.00 | 28 | 1004.0 |
| 20260504181545 | 27 | 94 | 4.8 | 16.1 | 0.00 | 0.00 | 0.00 | 31 | 1004.1 |
| 20260504180044 | 27 | 46 | 8.0 | 14.5 | 0.00 | 0.00 | 0.00 | 29 | 1004.2 |
| 20260504174543 | 26 | 65 | 3.2 | 8.0 | 0.00 | 0.00 | 0.00 | 34 | 1004.3 |
| 20260504173049 | 26 | 25 | 3.2 | 8.0 | 0.00 | 0.00 | 0.00 | 37 | 1004.5 |
| 20260504171542 | 25 | 60 | 1.6 | 9.7 | 0.00 | 0.00 | 0.00 | 38 | 1004.4 |
| 20260504081541 | 14 | 209 | 8.0 | 17.7 | 0.00 | 0.00 | 0.00 | 46 | 1004.2 |
| 20260504044542 | 13 | 0 | 0.0 | 1.6 | 0.00 | 0.00 | 0.00 | 63 | 1006.1 |
| 20260504043043 | 15 | 0 | 0.0 | 1.6 | 0.00 | 0.00 | 0.00 | 59 | 1006.2 |
| 20260504041544 | 16 | 0 | 0.0 | 1.6 | 0.00 | 0.00 | 0.00 | 52 | 1006.3 |
| 20260504040049 | 18 | 335 | 0.0 | 1.6 | 0.00 | 0.00 | 0.00 | 42 | 1006.4 |
| 20260504034552 | 18 | 0 | 0.0 | 0.0 | 0.00 | 0.00 | 0.00 | 36 | 1006.5 |
| 20260504033042 | 20 | 0 | 0.0 | 1.6 | 0.00 | 0.00 | 0.00 | 34 | 1006.5 |
| 20260504031543 | 20 | 0 | 0.0 | 3.2 | 0.00 | 0.00 | 0.00 | 36 | 1006.6 |
| 20260504030042 | 21 | 143 | 0.0 | 1.6 | 0.00 | 0.00 | 0.00 | 31 | 1006.5 |
| 20260504024551 | 22 | 204 | 0.0 | 4.8 | 0.00 | 0.00 | 0.00 | 28 | 1006.5 |
| 20260504023045 | 21 | 0 | 0.0 | 8.0 | 0.00 | 0.00 | 0.00 | 29 | 1006.4 |
| 20260504021546 | 20 | 164 | 0.0 | 4.8 | 0.00 | 0.00 | 0.00 | 33 | 1006.4 |
| 20260504020044 | 20 | 0 | 0.0 | 0.0 | 0.00 | 0.00 | 0.00 | 33 | 1005.8 |
| 20260504014542 | 21 | 0 | 0.0 | 3.2 | 0.00 | 0.00 | 0.00 | 34 | 1005.6 |
| 20260504013055 | 22 | 0 | 0.0 | 0.0 | 0.00 | 0.00 | 0.00 | 27 | 1005.5 |
| 20260504011545 | 24 | 0 | 0.0 | 1.6 | 0.00 | 0.00 | 0.00 | 23 | 1005.5 |
| 20260504010045 | 25 | 174 | 1.6 | 9.7 | 0.00 | 0.00 | 0.00 | 21 | 1005.6 |
| 20260504004543 | 26 | 213 | 3.2 | 11.3 | 0.00 | 0.00 | 0.00 | 19 | 1005.7 |
| 20260504003041 | 26 | 153 | 3.2 | 12.9 | 0.00 | 0.00 | 0.00 | 19 | 1005.9 |
| 20260504001543 | 27 | 171 | 4.8 | 20.9 | 0.00 | 0.00 | 0.00 | 17 | 1005.9 |
| 20260504000048 | 28 | 136 | 8.0 | 20.9 | 0.00 | 0.00 | 0.00 | 17 | 1006.0 |